Location: Peterborough
(44.3091°N, 78.3197°W)
Time: 04:21:07
(UTC-04:00)

Tiros 1 - Pass Details

Date: 10 April 2023
Orbit: 627 x 661 km, 48.4° (Epoch: 09 June)

Event Time Altitude Azimuth Distance (km) Brightness Sun altitude
Rises 02:35:39 0° 268° (W) 2,959 - -34.7°
Reaches altitude 10° 02:38:01 10° 273° (W) 2,055 - -34.5°
Maximum altitude 02:42:41 55° 352° (N) 789 - -34.2°
Exits shadow 02:45:40 22° 63° (ENE) 1,450 9.4 -33.9°
Drops below altitude 10° 02:47:23 10° 70° (ENE) 2,073 10.2 -33.8°
Sets 02:49:48 0° 75° (ENE) 2,989 11.1 -33.6°
